Main page
METAR-TAF:

METAR-TAF

Airports :

Boulmer, England

RAF Boulmer

latitude: 55-25-19N, longitude: 1-36-12W, elevation: 24 m

Current weather observation

The report was made 1 hour and 2 minutes ago, at 03:50 UTC
Wind 14 kt from the West
Temperature 11°C
Humidity 87%
Pressure 994 hPa
Visibility 10 km or more

METAR: EGQM 220350Z AUTO 26014KT 9999 SCT045/// SCT200/// 11/09 Q0994

Time: 05:52 (04:52 UTC)


TAF: missing

Weather observations and forecasts of more than 4000 airports (METAR and TAF reports).

The available stations are represented by yellow and red dots on the map.

Hover mouse over dot to see the name of the station.

Then click to see weather observations and forecasts.

To change the map : click on the green buttons with a black cross to zoom in, on the green button with a dash to zoom out, or on the green arrows for adjacent maps.


METAR-TAF: